DECAYED
Showing default

CORAL, 67684 (Decayed)

Orbit data source: Space-Track

CORAL, 67684 was a payload satellite owned by Roma La Sapienza (IT) in LEO that was delivered to the ISS. Payload-class satellites include a variety of spacecraft equipped with specific instruments for various scientific and technological missions. These include communications satellites like Starlink; space stations such as the ISS; scientific satellites like the Hubble; Earth observation satellites from companies like Planet Labs, Umbra, and HawkEye 360; GPS; miniature CubeSats for education and research; and military/defense satellites.

Not visible in the next 10 days
Identifier
67684, 1998-067YA
Orbit
Decayed
Country
Flag of ITIT
Related business
Manufacturer
Roma La Sapienza
Mission
Decayed spacecraft
Bus & Motor
CUBESAT 2U, Unknown motor
Mass
2 kg wet, 2 kg dry
Launch date (UTC)
1998-11-20 (28 years ago)
Launch vehicle
H3-24W
Launch site
Tyuratam Missile And Space Complex (TTMTR)
Object type
Payload
Rocket body
Debris
Shape & HBR
BOX, 0.1 m
Radar Cross Section
Medium (>0.1 m² and <1 m²)

Expand to show TLE details & history
Last TLE update: 1 month ago

TLE from 1 month ago
0 CORAL
1 67684U 98067YA  26212.62137753  .06930230  12221-4  10997-2 0  9991
2 67684  51.5992  54.2541 0013311 279.5039  80.4480 16.32675236 27430
Epoch: 2026-07-31T14:54Z
TLE epoch observation values (Epoch: 2026-07-31T14:54:47.018Z)
Latitude
-0°
Longitude
-118.68672°
Altitude
184.685 km
Speed
7.798 km/s
True Right ascension
03h 37m 00s
True Declination
0° 00' 00"
Sunlit
Object was in daylight at epoch
Visualization orbit readout
Latitude
Unknown
Longitude
Unknown
Altitude
Unknown
Speed
Unknown
Apparent Right ascension
Unknown
Apparent Declination
Unknown
Sunlit
N/A
Visualization observer readout
Local Sidereal Time
01:48:35
Azimuth
Unknown
Elevation
Unknown
Doppler factor
Unknown
Orbital elements
Apogee altitude
194.63 km
Perigee altitude
177.155 km
Semi-major axis
6,564.03 km
Eccentricity
0.00133
Inclination
51.5992°
RAAN
54.2541°
Arg. of periapsis
279.5039°
True anomaly
80.59846°
Mean anomaly
80.448°
Eccentric anomaly
80.52323°
Mean motion
4.0812 °/min
Orbital period
88.21 mins
BSTAR
0.0010997
Loading maneuver chart data...
Computing Atmospheric mass density...
Loading historical data...
Loading historical data...
Loading historical data...
Loading historical data...
Loading historical data...
Loading historical data...
Loading historical data...

Documentation

Showing up to 5 results
|